GW2943 Weather Reports


time (UTC)temp
F
wind
direction
speed
knots
gust
knots
rain 1hr
in
rain 24hr
in
rain mn
in
humidity
%
barometer
mb
20260510141517 34 309 4.3 9.6 0.00 0.00 0.00 83 1020.0
20260510140013 34 319 3.5 10.4 0.00 0.00 0.00 83 1019.8
20260510134511 34 5 2.6 8.7 0.00 0.00 0.00 85 1019.6
20260510133008 34 262 3.5 10.4 0.00 0.00 0.00 84 1019.4
20260510131607 34 298 3.5 7.8 0.00 0.00 0.00 85 1019.4
20260510130013 34 316 2.6 8.7 0.00 0.00 0.00 88 1019.2
20260510124508 34 346 2.6 7.8 0.00 0.00 0.00 88 1018.9
20260510123110 34 307 3.5 11.3 0.00 0.00 0.00 89 1018.7
20260510121559 34 313 1.7 9.6 0.00 0.00 0.00 91 1018.6
20260510120055 33 289 2.6 5.2 0.00 0.00 0.00 93 1018.2
20260510114553 33 303 1.7 4.3 0.00 0.00 0.00 93 1018.2
20260510113100 33 343 1.7 4.3 0.00 0.00 0.00 93 1017.8
20260510111603 33 290 0.9 6.1 0.00 0.00 0.00 94 1017.7
20260510110045 33 325 1.7 5.2 0.00 0.00 0.00 94 1017.5
20260510104600 33 292 0.9 6.1 0.00 0.00 0.00 94 1017.2
20260510103043 33 338 0.9 3.5 0.00 0.00 0.00 94 1016.9
20260510101540 33 287 1.7 6.1 0.00 0.00 0.00 94 1016.9
20260510100040 32 299 0.9 5.2 0.00 0.00 0.00 94 1016.6
20260510094636 32 294 1.7 3.5 0.00 0.00 0.00 94 1016.6
20260510093036 32 325 0.9 6.1 0.00 0.00 0.00 94 1016.4
20260510091549 32 298 0.9 2.6 0.00 0.00 0.00 94 1016.2
20260510090033 32 302 1.7 6.1 0.00 0.00 0.00 94 1016.0
20260510084531 32 337 0.9 3.5 0.00 0.00 0.00 94 1015.8
20260510083029 32 301 0.9 3.5 0.00 0.00 0.00 93 1015.7
20260510081536 33 268 0.9 6.1 0.00 0.00 0.00 93 1015.7
20260510080028 33 286 0.9 4.3 0.00 0.00 0.00 93 1015.5
20260510074530 33 284 0.9 3.5 0.00 0.00 0.00 93 1015.4
20260510073035 33 276 1.7 5.2 0.00 0.00 0.00 93 1015.3
20260510071534 33 291 1.7 5.2 0.00 0.00 0.00 93 1015.4
20260510070027 33 287 0.9 3.5 0.00 0.00 0.00 93 1015.2
20260510064546 33 276 2.6 5.2 0.00 0.00 0.00 93 1015.1
20260510063028 33 260 3.5 8.7 0.00 0.00 0.00 93 1015.0
20260510061533 33 275 1.7 5.2 0.00 0.00 0.00 94 1015.0
20260510060031 33 294 0.0 3.5 0.00 0.00 0.00 94 1014.9
20260510054521 33 250 1.7 2.6 0.00 0.00 0.00 94 1014.7
20260510053018 33 250 0.0 1.7 0.00 0.00 0.00 93 1014.4
20260510051516 33 325 0.9 5.2 0.00 0.00 0.00 93 1014.4
20260510050015 33 287 4.3 7.8 0.00 0.00 0.00 92 1014.4
20260510044511 34 300 2.6 7.8 0.00 0.00 0.00 93 1014.4
20260510043010 33 300 1.7 6.1 0.00 0.00 0.00 93 1014.6
20260510041507 33 294 0.9 3.5 0.00 0.00 0.00 92 1014.2
20260510040006 33 302 0.0 2.6 0.00 0.00 0.00 91 1014.1
20260510034504 34 311 0.9 2.6 0.00 0.00 0.00 90 1014.0
20260510033002 35 284 1.7 5.2 0.00 0.00 0.00 90 1014.0
20260510031609 35 335 0.9 10.4 0.00 0.00 0.00 88 1013.8
20260510030107 35 319 1.7 6.1 0.00 0.00 0.00 87 1014.1
20260510024600 35 294 1.7 3.5 0.00 0.00 0.00 87 1013.9
20260510023059 35 301 0.9 4.3 0.00 0.00 0.00 87 1013.7
20260510021558 36 311 1.7 5.2 0.00 0.00 0.00 86 1013.5
20260510020055 36 290 2.6 6.1 0.00 0.00 0.00 85 1013.4
20260510014552 36 336 1.7 5.2 0.00 0.00 0.00 85 1013.1
20260510013053 37 327 2.6 8.7 0.00 0.00 0.00 83 1012.7
20260510011548 38 316 5.2 17.4 0.00 0.00 0.00 78 1012.8
20260510010045 39 355 4.3 10.4 0.00 0.00 0.00 69 1011.9
20260510004545 39 315 1.7 7.0 0.00 0.00 0.00 73 1011.7
20260510003054 40 302 1.7 7.0 0.00 0.00 0.00 74 1011.6
20260510001544 40 340 1.7 4.3 0.00 0.00 0.00 77 1011.4
20260510000043 40 291 1.7 14.8 0.00 0.00 0.00 78 1011.6
20260509234557 41 321 3.5 10.4 0.00 0.00 0.00 63 1011.2
20260509233045 42 297 1.7 9.6 0.00 0.00 0.00 66 1011.0
20260509231557 41 350 3.5 12.2 0.00 0.00 0.00 68 1011.0
20260509230037 43 348 7.0 17.4 0.00 0.00 0.00 61 1011.0
20260509224534 45 302 3.5 8.7 0.00 0.00 0.00 52 1010.1
20260509223036 44 301 4.3 12.2 0.00 0.00 0.00 54 1010.0
20260509221532 45 323 3.5 8.7 0.00 0.00 0.00 52 1010.0
20260509220037 45 282 5.2 12.2 0.00 0.00 0.00 53 1010.0
20260509214533 46 298 9.6 18.2 0.00 0.00 0.00 51 1009.8
20260509213032 44 309 6.1 15.6 0.00 0.00 0.00 54 1009.7
20260509211528 44 282 6.1 13.9 0.00 0.00 0.00 56 1009.6
20260509210029 44 308 6.1 14.8 0.00 0.00 0.00 56 1009.5
20260509204527 43 282 4.3 12.2 0.00 0.00 0.00 59 1009.3
20260509203033 42 331 5.2 13.9 0.00 0.00 0.00 59 1009.2
20260509201521 43 331 6.1 13.0 0.00 0.00 0.00 59 1009.0
20260509200021 42 13 6.1 11.3 0.00 0.00 0.00 61 1009.0
20260509194521 41 355 6.1 13.9 0.00 0.00 0.00 60 1009.0
20260509193020 42 321 3.5 11.3 0.00 0.00 0.00 62 1008.6
20260509191517 42 281 4.3 10.4 0.00 0.00 0.00 62 1008.3
20260509190018 42 303 5.2 13.9 0.00 0.00 0.00 61 1007.9
20260509184526 43 274 5.2 13.9 0.00 0.00 0.00 60 1007.7
20260509183020 41 342 3.5 9.6 0.00 0.00 0.00 62 1007.7
20260509181516 41 331 5.2 14.8 0.00 0.00 0.00 61 1007.6
20260509180017 43 5 3.5 9.6 0.00 0.00 0.00 55 1007.3
20260509174507 42 325 6.1 13.9 0.00 0.00 0.00 56 1007.2
20260509173008 41 345 5.2 11.3 0.00 0.00 0.00 58 1007.1
20260509171503 41 298 4.3 13.0 0.00 0.00 0.00 58 1006.8
20260509170002 41 296 4.3 12.2 0.00 0.00 0.00 59 1006.7
20260509164502 41 321 3.5 12.2 0.00 0.00 0.00 61 1006.4
20260509163105 41 355 4.3 10.4 0.00 0.00 0.00 62 1006.1
20260509161559 40 305 4.3 13.9 0.00 0.00 0.00 64 1006.0
20260509160057 39 350 5.2 16.5 0.00 0.00 0.00 64 1005.8
20260509154607 40 12 8.7 14.8 0.00 0.00 0.00 64 1005.6
20260509153053 41 332 6.1 13.9 0.00 0.00 0.00 66 1005.6
20260509151553 40 328 4.3 13.9 0.00 0.00 0.00 68 1005.3
20260509150106 40 327 7.0 15.6 0.00 0.00 0.00 68 1005.1
20260509144553 40 322 5.2 15.6 0.00 0.00 0.00 69 1004.7
20260509143052 40 316 6.1 13.9 0.00 0.00 0.00 67 1004.5